Weather History for KROX - May, 2014

Change the Weather History Date:

Wednesday, May 14, 2014

  Actual Average Record
Temperature  
Mean Temperature 38 °F -  
Max Temperature 42 °F 65 °F 89 °F (1991)
Min Temperature 33 °F 36 °F 23 °F (1983)
Degree Days  
Heating Degree Days 28    
Moisture  
Dew Point 31 °F    
Average Humidity 74    
Maximum Humidity 87    
Minimum Humidity 61    
Precipitation  
Precipitation 0.03 in - - ()
Sea Level Pressure  
Sea Level Pressure 30.23 in    
Wind  
Wind Speed 10 mph (NW)    
Max Wind Speed 18 mph    
Max Gust Speed 21 mph    
Visibility 10 miles    
Events Snow    
Averages and records for this station are not official NWS values.
T = Trace of Precipitation, MM = Missing Value Source: NWS Daily Summary

Daily Weather History Graph

Daily Weather History Graph

Search for Another Location

Airport or City:

Trip Planner

Search our weather history database for the weather conditions in past years. The results will help you decide how hot, cold, wet, or windy it might be!

Date:

Astronomy

May. 14, 2014 Rise Set
Actual Time 5:42 AM CDT 8:56 PM CDT
Civil Twilight 5:04 AM CDT 9:34 PM CDT
Nautical Twilight 4:14 AM CDT 10:24 PM CDT
Astronomical Twilight 3:11 AM CDT 11:29 PM CDT
Moon 9:01 PM CDT (5/14) 5:46 AM CDT (5/14)
Length of Visible Light 16h 30m
Length of Day
15h 14m
Full, 100% of the Moon is Illuminated
May 14
Full
May 14
Full
May 21
Last Quarter
May 28
New
Jun 5
First Quarter

Hourly Weather History & Observations

Time (CDT) Temp. Windchill Dew Point Humidity Pressure Visibility Wind Dir Wind Speed Gust Speed Precip Events Conditions
12:14 AM 37.4 °F 31.4 °F 32.0 °F 81% 30.10 in 10.0 mi NW 8.1 mph - N/A   Scattered Clouds
12:34 AM 35.6 °F 29.9 °F 32.0 °F 87% 30.11 in 10.0 mi NW 6.9 mph - N/A   Scattered Clouds
12:54 AM 37.4 °F 33.8 °F 33.8 °F 87% 30.10 in 10.0 mi WNW 4.6 mph - 0.01 in   Overcast
1:14 AM 39.2 °F 35.0 °F 33.8 °F 81% 30.11 in 10.0 mi WNW 5.8 mph - N/A   Overcast
1:34 AM 37.4 °F 29.8 °F 33.8 °F 87% 30.11 in 10.0 mi NW 11.5 mph - N/A   Overcast
1:54 AM 37.4 °F 30.3 °F 32.0 °F 81% 30.11 in 10.0 mi WNW 10.4 mph - N/A   Overcast
2:14 AM 37.4 °F 29.8 °F 30.2 °F 75% 30.11 in 10.0 mi NW 11.5 mph 16.1 mph N/A   Overcast
2:34 AM 37.4 °F 28.5 °F 30.2 °F 75% 30.11 in 10.0 mi WNW 15.0 mph 20.7 mph N/A   Overcast
2:54 AM 37.4 °F 29.3 °F 30.2 °F 75% 30.11 in 10.0 mi WNW 12.7 mph - N/A   Overcast
3:14 AM 37.4 °F 28.5 °F 30.2 °F 75% 30.12 in 10.0 mi NW 15.0 mph - 0.01 in   Scattered Clouds
3:34 AM 35.6 °F 26.2 °F 28.4 °F 75% 30.12 in 10.0 mi NW 15.0 mph - 0.01 in   Clear
4:14 AM 37.4 °F 30.3 °F 30.2 °F 75% 30.13 in 10.0 mi WNW 10.4 mph 19.6 mph N/A   Overcast
4:34 AM 35.6 °F 28.6 °F 30.2 °F 81% 30.13 in 7.0 mi WNW 9.2 mph - N/A   Mostly Cloudy
4:54 AM 35.6 °F 28.6 °F 30.2 °F 81% 30.14 in 7.0 mi WNW 9.2 mph - N/A Snow Light Snow
5:14 AM 35.6 °F 25.9 °F 30.2 °F 81% 30.14 in 10.0 mi NW 16.1 mph - N/A   Overcast
5:34 AM 35.6 °F 26.6 °F 30.2 °F 81% 30.15 in 10.0 mi NW 13.8 mph - N/A   Overcast
5:54 AM 33.8 °F 24.3 °F 28.4 °F 81% 30.16 in 10.0 mi NW 13.8 mph - N/A   Scattered Clouds
6:14 AM 33.8 °F 24.8 °F 28.4 °F 81% 30.17 in 10.0 mi NW 12.7 mph - N/A   Clear
6:34 AM 33.8 °F 25.3 °F 28.4 °F 81% 30.18 in 10.0 mi NW 11.5 mph - N/A   Mostly Cloudy
7:14 AM 35.6 °F 27.5 °F 28.4 °F 75% 30.19 in 7.0 mi WNW 11.5 mph - N/A   Mostly Cloudy
7:35 AM 35.6 °F 28.0 °F 30.2 °F 81% 30.19 in 10.0 mi WNW 10.4 mph - N/A   Mostly Cloudy
7:47 AM 35.6 °F 26.6 °F 30.2 °F 81% 30.19 in 7.0 mi NW 13.8 mph - N/A   Overcast
8:01 AM 35.6 °F 27.1 °F 30.2 °F 81% 30.19 in 4.0 mi WNW 12.7 mph - N/A   Overcast
8:21 AM 35.6 °F 27.5 °F 30.2 °F 81% 30.21 in 7.0 mi WNW 11.5 mph 18.4 mph N/A   Overcast
8:41 AM 35.6 °F 27.1 °F 30.2 °F 81% 30.21 in 7.0 mi WNW 12.7 mph - N/A   Overcast
9:21 AM 37.4 °F 28.2 °F 30.2 °F 75% 30.22 in 7.0 mi NW 16.1 mph 20.7 mph N/A   Mostly Cloudy
10:01 AM 37.4 °F 27.5 °F 30.2 °F 75% 30.22 in 10.0 mi NW 18.4 mph - N/A   Overcast
10:21 AM 37.4 °F 28.5 °F 30.2 °F 75% 30.24 in 10.0 mi NW 15.0 mph - N/A   Overcast
10:49 AM 37.4 °F 28.5 °F 30.2 °F 75% 30.24 in 10.0 mi WNW 15.0 mph - N/A   Overcast
10:54 AM 37.4 °F 28.2 °F 30.2 °F 75% 30.24 in 10.0 mi NW 16.1 mph - N/A   Overcast
11:14 AM 37.4 °F 28.9 °F 30.2 °F 75% 30.25 in 10.0 mi NW 13.8 mph - 0.01 in   Overcast
11:34 AM 37.4 °F 28.5 °F 30.2 °F 75% 30.25 in 10.0 mi NW 15.0 mph - 0.01 in   Overcast
11:54 AM 39.2 °F 30.8 °F 30.2 °F 70% 30.26 in 10.0 mi NW 15.0 mph - 0.01 in   Overcast
12:15 PM 39.2 °F 31.6 °F 30.2 °F 70% 30.26 in 10.0 mi NW 12.7 mph - N/A   Overcast
12:34 PM 39.2 °F 30.8 °F 30.2 °F 70% 30.26 in 10.0 mi NW 15.0 mph - N/A   Overcast
12:54 PM 39.2 °F 31.2 °F 30.2 °F 70% 30.27 in 10.0 mi NW 13.8 mph 19.6 mph N/A   Overcast
1:15 PM 39.2 °F 31.6 °F 30.2 °F 70% 30.27 in 10.0 mi NW 12.7 mph - N/A   Overcast
1:34 PM 39.2 °F 33.0 °F 30.2 °F 70% 30.27 in 10.0 mi NW 9.2 mph - N/A   Mostly Cloudy
1:54 PM 41.0 °F 34.7 °F 30.2 °F 65% 30.27 in 10.0 mi NW 10.4 mph - N/A   Overcast
2:15 PM 42.8 °F 36.6 °F 30.2 °F 61% 30.27 in 10.0 mi NW 11.5 mph 18.4 mph N/A   Overcast
2:25 PM 41.0 °F 34.3 °F 30.2 °F 65% 30.27 in 10.0 mi NW 11.5 mph - N/A   Overcast
2:41 PM 41.0 °F 34.7 °F 30.2 °F 65% 30.27 in 10.0 mi NNW 10.4 mph - N/A   Overcast
3:09 PM 42.8 °F 37.5 °F 32.0 °F 66% 30.27 in 10.0 mi NW 9.2 mph - N/A   Overcast
3:15 PM 42.8 °F 37.0 °F 30.2 °F 61% 30.27 in 10.0 mi WNW 10.4 mph - N/A   Overcast
3:34 PM 41.0 °F 36.4 °F 30.2 °F 65% 30.27 in 10.0 mi WNW 6.9 mph - N/A   Overcast
3:54 PM 42.8 °F 37.5 °F 30.2 °F 61% 30.27 in 10.0 mi WNW 9.2 mph - N/A   Overcast
4:14 PM 41.0 °F 35.8 °F 32.0 °F 70% 30.28 in 10.0 mi WNW 8.1 mph - N/A   Overcast
4:34 PM 42.8 °F 38.6 °F 32.0 °F 66% 30.28 in 10.0 mi WNW 6.9 mph - N/A   Overcast
4:55 PM 42.8 °F 35.1 °F 35.6 °F 76% 30.28 in 10.0 mi NW 16.1 mph 19.6 mph N/A   Mostly Cloudy
5:14 PM 39.2 °F 33.6 °F 33.8 °F 81% 30.29 in 7.0 mi NNW 8.1 mph - N/A   Mostly Cloudy
5:34 PM 41.0 °F 37.1 °F 33.8 °F 76% 30.29 in 10.0 mi NNW 5.8 mph - N/A   Mostly Cloudy
5:48 PM 42.8 °F 39.3 °F 33.8 °F 70% 30.29 in 10.0 mi NW 5.8 mph - N/A   Mostly Cloudy
6:14 PM 42.8 °F 38.6 °F 33.8 °F 70% 30.28 in 10.0 mi WNW 6.9 mph - N/A   Mostly Cloudy
6:54 PM 41.0 °F 33.9 °F 32.0 °F 70% 30.28 in 10.0 mi NNW 12.7 mph - N/A   Overcast
7:14 PM 41.0 °F 34.7 °F 30.2 °F 65% 30.28 in 10.0 mi North 10.4 mph - N/A   Overcast
7:34 PM 41.0 °F 33.9 °F 30.2 °F 65% 30.29 in 10.0 mi North 12.7 mph - N/A   Overcast
7:54 PM 39.2 °F 32.0 °F 30.2 °F 70% 30.29 in 10.0 mi North 11.5 mph - N/A   Scattered Clouds
8:14 PM 39.2 °F 32.0 °F 30.2 °F 70% 30.29 in 10.0 mi NNW 11.5 mph - N/A   Mostly Cloudy
8:34 PM 39.2 °F 32.0 °F 30.2 °F 70% 30.30 in 10.0 mi NNW 11.5 mph - N/A   Mostly Cloudy
8:54 PM 39.2 °F 33.6 °F 28.4 °F 65% 30.30 in 10.0 mi NNW 8.1 mph - N/A   Overcast
9:14 PM 39.2 °F 33.0 °F 30.2 °F 70% 30.30 in 10.0 mi NNW 9.2 mph - N/A   Overcast
9:34 PM 39.2 °F 33.0 °F 28.4 °F 65% 30.31 in 10.0 mi North 9.2 mph - N/A   Overcast
9:54 PM 39.2 °F 35.0 °F 30.2 °F 70% 30.31 in 10.0 mi North 5.8 mph - N/A   Overcast
10:14 PM 39.2 °F 33.6 °F 28.4 °F 65% 30.31 in 10.0 mi North 8.1 mph - N/A   Overcast
10:34 PM 37.4 °F 32.8 °F 30.2 °F 75% 30.31 in 10.0 mi North 5.8 mph - N/A   Overcast
10:54 PM 37.4 °F 34.9 °F 30.2 °F 75% 30.31 in 10.0 mi NNW 3.5 mph - N/A   Overcast
11:15 PM 37.4 °F - 30.2 °F 75% 30.31 in 10.0 mi Calm Calm - N/A   Overcast
11:34 PM 37.4 °F 33.8 °F 30.2 °F 75% 30.31 in 10.0 mi North 4.6 mph - N/A   Overcast
11:54 PM 37.4 °F 34.9 °F 30.2 °F 75% 30.31 in 10.0 mi NNE 3.5 mph - N/A   Overcast